Location: Calvatone
(45.1167°N, 10.4333°E)
Time: 09:23:38
(UTC+00:00)

METEOR M2 - Pass Details

Date: 12 December 2023
Orbit: 818 x 826 km, 98.4° (Epoch: 24 February)

Event Time Altitude Azimuth Distance (km) Brightness Sun altitude
Rises 05:57:35 0° 7° (N) 3,369 ? -8.5°
Reaches altitude 10° 06:00:02 10° 1° (N) 2,430 ? -8.1°
Maximum altitude 06:05:04 43° 292° (WNW) 1,149 ? -7.3°
Drops below altitude 10° 06:10:05 10° 222° (SW) 2,411 ? -6.5°
Sets 06:12:30 0° 216° (SW) 3,338 ? -6.2°
